Regional Weather Roundup
Issued by NWS

Home | Current Version | Previous Version | Graphics & Text | Print | Product List | Glossary On
Versions: 1 2 3 4 5 6 7 8 9 10 11 12 13 14 15 16 17 18 19 20 21 22 23 24 25 26 27 28 29 30 31 32 33 34 35 36 37 38 39 40 41 42 43 44 45 46 47 48 49 50
000
ASUS43 KTOP 240608
RWRKS

WEATHER ROUNDUP FOR KANSAS
NATIONAL WEATHER SERVICE GOODLAND KS
1200 AM CST MON NOV 24 2014

NOTE:  "FAIR" INDICATES FEW OR NO CLOUDS BELOW 12,000 FEET WITH NO
SIGNIFICANT WEATHER AND/OR OBSTRUCTIONS TO VISIBILITY.

KSZ001>006-013>018-027>032-041>047-240700-
NORTHWEST KANSAS

CITY           SKY/WX    TMP DP  RH WIND       PRES   REMARKS
GOODLAND       CLEAR     27  14  58 W15       29.83S WCI  15
6HR MIN TEMP:  25; 6HR MAX TEMP:  39;

HAYS           CLEAR     34  14  44 NW13      29.75S WCI  25
HILL CITY      CLEAR     33  15  47 W12       29.76F WCI  24
6HR MIN TEMP:  33; 6HR MAX TEMP:  44;

RUSSELL        CLEAR     33  21  61 W12       29.72R WCI  24
6HR MIN TEMP:  33; 6HR MAX TEMP:  43;

$$

KSZ061>065-074>080-084>089-240700-
SOUTHWEST KANSAS

CITY           SKY/WX    TMP DP  RH WIND       PRES   REMARKS
DODGE CITY     CLEAR     32  14  47 NW15      29.81R WCI  22
6HR MIN TEMP:  32; 6HR MAX TEMP:  45;

ELKHART          N/A    N/A N/A N/A MISG        N/A
GARDEN CITY    PTCLDY    29  13  51 NW15      29.84S WCI  18
6HR MIN TEMP:  27; 6HR MAX TEMP:  44;

GREAT BEND     CLEAR     36  16  44 NW13      29.77R WCI  27
LIBERAL        CLEAR     32  12  43 NW10      29.89R WCI  24
PRATT          CLEAR     34  21  60 NW13      29.77R WCI  25
$$

KSZ066>073-081>083-090>101-240700-
SOUTHEAST KANSAS

CITY           SKY/WX    TMP DP  RH WIND       PRES   REMARKS
CHANUTE        CLOUDY    42  35  76 NW15      29.60R
6HR MIN TEMP:  42; 6HR MAX TEMP:  47; 6HR PCP:  0.03;

COFFEYVILLE    CLOUDY    43  36  76 W10       29.63R
6HR MIN TEMP:  43; 6HR MAX TEMP:  49; 6HR PCP:  0.02;

HUTCHINSON     CLEAR     42  22  44 NW17G26   29.71R
6HR MIN TEMP:  42; 6HR MAX TEMP:  44;

MEDICINE LODGE   N/A     39  21  48 NW10      29.76R WCI  32
NEWTON         PTCLDY    39  25  56 NW21G32   29.68R WCI  29
PARSONS        CLOUDY    42  37  82 NW10      29.62R
6HR MIN TEMP:  42; 6HR MAX TEMP:  48; 6HR PCP: TRACE;

WICHITA INTL   PTCLDY    42  26  53 NW18G29   29.70R
6HR MIN TEMP:  42; 6HR MAX TEMP:  44; 6HR PCP: TRACE;

WICHITA JABRA  MOCLDY    40  28  62 NW17G26   29.68R WCI  31
6HR MIN TEMP:  40; 6HR MAX TEMP:  42; 6HR PCP: TRACE;

WICHITA MCCONL MOCLDY    42  28  58 N15       29.69R
WINFIELD       MOCLDY    39  34  82 W10       29.70R WCI  32
6HR MIN TEMP:  39; 6HR MAX TEMP:  43; 6HR PCP:  0.03;

$$

KSZ007>012-019>026-033>040-048>060-102>105-240700-
NORTHEAST KANSAS

CITY           SKY/WX    TMP DP  RH WIND       PRES   REMARKS
CONCORDIA      CLEAR     38  25  59 NW20G29   29.63F WCI  28
6HR MIN TEMP:  37; 6HR MAX TEMP:  42;

EMPORIA        CLOUDY    39  32  76 NW14      29.60R WCI  31
6HR MIN TEMP:  39; 6HR MAX TEMP:  42; 6HR PCP:  0.02;

LAWRENCE       CLOUDY    40  31  70 NW17      29.53R WCI  31
6HR MIN TEMP:  40; 6HR MAX TEMP:  44; 6HR PCP:  0.07;

MANHATTAN      PTCLDY    38  30  73 VRB3      29.62R
6HR MIN TEMP:  38; 6HR MAX TEMP:  43;

MARYSVILLE     PTCLDY    36  27  69 NW21G29   29.58S WCI  24
OLATHE IND     CLOUDY    40  33  76 NW14      29.51R WCI  32
6HR MIN TEMP:  39; 6HR MAX TEMP:  44; 6HR PCP:  0.16;

OLATHE EXE     CLOUDY    41  32  70 NW21G26   29.48R
6HR MIN TEMP:  40; 6HR MAX TEMP:  45; 6HR PCP:  0.14;

SALINA         CLEAR     40  25  55 NW20      29.68R WCI  30
6HR MIN TEMP:  40; 6HR MAX TEMP:  43;

TOPEKA BILLARD MOCLDY    42  28  57 NW15      29.56R
6HR MIN TEMP:  42; 6HR MAX TEMP:  44; 6HR PCP:  0.03;

TOPEKA FORBES  MOCLDY    42  28  57 NW25G33   29.54R
6HR MIN TEMP:  41; 6HR MAX TEMP:  44; 6HR PCP:  0.09;

$$



USA.gov is the U.S. government's official web portal to all federal, state and local government web resources and services.